Home   Weather   Vennesla   Past weeks
Flag for Norway

Past Weather in Vennesla, Norway — Yesterday and Last 2 Weeks

Now
46 °F

Light rain. Partly sunny.


Feels Like: 45 °F
Forecast: 50 / 42 °F
Wind: 3 mph from Northwest

Location: Kristiansand / Kjevik

Current Time: Oct 19, 2019 at 9:14:49 am

Latest Report: Oct 19, 2019 at 8:50 am


Visibility: 6 mi

Pressure: 29.45 "Hg

Humidity: 93%

Dew Point: 45 °F

Location of VenneslaLocation

Past Weather in Vennesla — Graph

°F

Vennesla Temperature Yesterday

Maximum temperature yesterday: 52 °F (at 1:50 pm)
Minimum temperature yesterday: 39 °F (at 2:20 am)
Average temperature yesterday: 46 °F

High & Low Weather Summary for the Past Weeks

 TemperatureHumidityPressure
High57 °F (Oct 12, 1:50 pm)100% (Oct 4, 7:20 am)30.30 "Hg (Oct 4, 7:20 am)
Low27 °F (Oct 7, 6:50 am)53% (Oct 6, 1:50 pm)29.30 "Hg (Oct 11, 3:50 pm)
Average46 °F91%29.72 "Hg
* Reported Oct 4 7:20 am — Oct 19 7:50 am, Vennesla. Weather by CustomWeather, © 2019

Note: Actual official high and low records may vary slightly from our data, if they occured in-between our weather recording intervals... More about our weather records

Advertising

Vennesla Weather History for the Previous 24 Hours

Scroll right to see more
 ConditionsComfort  
Time TempWeatherWind HumidityBarometerVisibility
7:50 am
Sat, Oct 19
46 °FPassing clouds.No wind100%29.42 "Hg4 mi
7:20 am46 °FPartly cloudy.2 mph100%29.42 "Hg6 mi
6:50 am46 °FPassing clouds.5 mph100%29.39 "Hg6 mi
6:20 am46 °FPassing clouds.5 mph100%29.39 "HgN/A
5:50 am46 °FPartly cloudy.3 mph100%29.39 "HgN/A
5:20 am46 °FLight rain. Overcast.3 mph100%29.39 "HgN/A
4:50 am46 °FLight rain. Mostly cloudy.No wind100%29.39 "HgN/A
4:20 am46 °FLight rain. Overcast.3 mph100%29.36 "HgN/A
3:50 am46 °FLight rain. Mostly cloudy.3 mph100%29.36 "HgN/A
3:20 am48 °FRain. Overcast.2 mph94%29.36 "Hg4 mi
2:50 am48 °FLight rain. Passing clouds.5 mph100%29.36 "Hg6 mi
2:20 am48 °FLight rain. Overcast.6 mph100%29.36 "HgN/A
1:50 am48 °FRain. Mostly cloudy.5 mph100%29.36 "HgN/A
1:20 am48 °FRain. Mostly cloudy.2 mph100%29.36 "Hg3 mi
12:50 am48 °FRain. Fog.3 mph100%29.39 "Hg2 mi
12:20 am48 °FHeavy rain. Overcast.5 mph100%29.39 "Hg2 mi
11:50 pm
Fri, Oct 18
48 °FRain. Mostly cloudy.9 mph100%29.39 "Hg4 mi
11:20 pm48 °FLight rain. Passing clouds.15 mph100%29.39 "Hg4 mi
10:50 pm48 °FPassing clouds.15 mph100%29.42 "Hg4 mi
10:20 pm48 °FLight rain. Passing clouds.16 mph100%29.42 "Hg3 mi
9:50 pm48 °FLight rain. Partly cloudy.15 mph100%29.45 "Hg3 mi
9:20 pm48 °FLight rain. Partly cloudy.14 mph100%29.45 "Hg3 mi
8:50 pm50 °FDrizzle. Fog.13 mph100%29.47 "Hg2 mi
8:20 pm50 °FDrizzle. Fog.15 mph100%29.50 "Hg3 mi
7:50 pm50 °FDrizzle. Mostly cloudy.18 mph100%29.50 "Hg4 mi
7:20 pm50 °FLight rain. Passing clouds.16 mph100%29.50 "HgN/A
6:50 pm50 °FRain. Passing clouds.18 mph100%29.53 "Hg2 mi
6:20 pm50 °FLight rain. Passing clouds.14 mph100%29.53 "Hg6 mi
5:50 pm52 °FLight rain. Partly sunny.13 mph94%29.53 "HgN/A
5:20 pm52 °FSprinkles. Partly sunny.12 mph100%29.53 "HgN/A
4:50 pm52 °FLight rain. Partly sunny.9 mph100%29.56 "HgN/A
4:20 pm52 °FLight rain. Partly sunny.10 mph100%29.56 "HgN/A
3:50 pm52 °FLight rain. Partly sunny.12 mph100%29.56 "Hg6 mi
3:20 pm52 °FLight rain. Partly sunny.9 mph100%29.59 "HgN/A
2:50 pm52 °FSprinkles. Partly sunny.7 mph100%29.59 "HgN/A
2:20 pm52 °FPartly sunny.8 mph100%29.62 "HgN/A
1:50 pm52 °FBroken clouds.8 mph100%29.62 "HgN/A
1:20 pm50 °FBroken clouds.9 mph100%29.62 "HgN/A
12:50 pm50 °FBroken clouds.9 mph100%29.65 "HgN/A
12:20 pm48 °FPartly sunny.9 mph100%29.65 "HgN/A
11:50 am48 °FDrizzle. Partly sunny.10 mph100%29.65 "HgN/A
11:20 am48 °FDrizzle. Partly sunny.10 mph100%29.65 "HgN/A
10:20 am46 °FBroken clouds.13 mph100%29.68 "HgN/A
9:50 am46 °FLight rain. Partly sunny.13 mph100%29.68 "HgN/A
9:20 am45 °FBroken clouds.13 mph100%29.68 "HgN/A
Weather by CustomWeather, © 2019

See weather overview